Weather History for Milton, FL

Change the Weather History Date:

Tuesday, July 9, 2013

  Actual Average (KNSE) Record (KNSE)
Temperature  
Mean Temperature 80 °F -  
Max Temperature 89 °F 86 °F 96 °F (2010)
Min Temperature 71 °F 70 °F 70 °F (2004)
Cooling Degree Days 14    
Growing Degree Days 30 (Base 50)    
Moisture  
Dew Point 72 °F    
Average Humidity 85    
Maximum Humidity 96    
Minimum Humidity 55    
Precipitation  
Precipitation 0.00 in - - ()
Sea Level Pressure  
Sea Level Pressure 30.13 in    
Wind  
Wind Speed 1 mph (North)    
Max Wind Speed 8 mph    
Max Gust Speed -    
Visibility 7 miles    
Events      
Averages and records for this station are not official NWS values.
T = Trace of Precipitation, MM = Missing Value Source: NWS Daily Summary

Daily Weather History Graph

Daily Weather History Graph

Search for Another Location

Airport:

Trip Planner

Search our weather history database for the weather conditions in past years. The results will help you decide how hot, cold, wet, or windy it might be!

Date:

Astronomy

Jul. 09, 2013 Rise Set
Actual Time 5:52 AM CDT 7:53 PM CDT
Civil Twilight 5:25 AM CDT 8:21 PM CDT
Nautical Twilight 4:52 AM CDT 8:54 PM CDT
Astronomical Twilight 4:16 AM CDT 9:29 PM CDT
Moon 7:07 AM CDT (7/9) 8:41 PM CDT (7/9)
Length of Visible Light 14h 56m
Length of Day
14h 01m
New Moon, 2% of the Moon is Illuminated
Jul 9
New Moon
Jul 15
First Quarter
Jul 22
Full
Jul 29
Last Quarter
Aug 6
New

Hourly Weather History & Observations

Time (CDT) Temp. Heat Index Dew Point Humidity Pressure Visibility Wind Dir Wind Speed Gust Speed Precip Events Conditions
12:56 AM 75.9 °F - 73.9 °F 94% 30.11 in 10.0 mi East 3.5 mph - N/A   Clear
1:25 AM 75.2 °F - 73.4 °F 94% 30.15 in 10.0 mi NNE 4.6 mph - N/A   Scattered Clouds
1:56 AM 75.0 °F - 73.0 °F 94% 30.10 in 10.0 mi Calm Calm - N/A   Clear
2:12 AM 75.2 °F - 73.4 °F 94% 30.14 in 10.0 mi Calm Calm - N/A   Scattered Clouds
2:33 AM 75.2 °F - 73.4 °F 94% 30.14 in 10.0 mi Calm Calm - N/A   Mostly Cloudy
2:51 AM 75.2 °F - 73.4 °F 94% 30.14 in 1.8 mi Calm Calm - N/A   Overcast
2:56 AM 75.0 °F - 73.0 °F 94% 30.09 in 1.0 mi East 3.5 mph - N/A   Mist
3:04 AM 75.2 °F - 73.4 °F 94% 30.14 in 0.8 mi Calm Calm - N/A   Mist
3:33 AM 73.4 °F - 71.6 °F 94% 30.14 in 1.0 mi Calm Calm - N/A   Mist
3:47 AM 73.4 °F - 71.6 °F 94% 30.14 in 3.0 mi Calm Calm - N/A   Overcast
3:56 AM 73.0 °F - 72.0 °F 96% 30.10 in 4.0 mi Calm Calm - N/A   Overcast
4:02 AM 73.4 °F - 71.6 °F 94% 30.14 in 1.8 mi Calm Calm - N/A   Overcast
4:18 AM 73.4 °F - 71.6 °F 94% 30.14 in 0.8 mi Calm Calm - N/A   Mist
4:26 AM 73.4 °F - 71.6 °F 94% 30.15 in 1.5 mi Calm Calm - N/A   Overcast
4:36 AM 73.4 °F - 71.6 °F 94% 30.15 in 2.5 mi Calm Calm - N/A   Mostly Cloudy
4:38 AM 73.4 °F - 71.6 °F 94% 30.15 in 3.0 mi Calm Calm - N/A   Scattered Clouds
4:53 AM 71.6 °F - 69.8 °F 94% 30.15 in 2.5 mi Calm Calm - N/A   Partly Cloudy
4:56 AM 72.0 °F - 70.0 °F 93% 30.11 in 2.5 mi Calm Calm - N/A   Partly Cloudy
5:03 AM 71.6 °F - 69.8 °F 94% 30.16 in 3.0 mi Calm Calm - N/A   Mostly Cloudy
5:17 AM 71.6 °F - 69.8 °F 94% 30.16 in 1.8 mi Calm Calm - N/A   Mostly Cloudy
5:26 AM 71.6 °F - 69.8 °F 94% 30.16 in 1.8 mi Calm Calm - N/A   Overcast
5:43 AM 71.6 °F - 69.8 °F 94% 30.16 in 3.0 mi Calm Calm - N/A   Mostly Cloudy
5:51 AM 71.6 °F - 69.8 °F 94% 30.16 in 2.5 mi Calm Calm - N/A   Scattered Clouds
5:52 AM 71.1 °F - 69.1 °F 93% 30.12 in 2.5 mi Calm Calm - N/A   Scattered Clouds
6:04 AM 71.6 °F - 69.8 °F 94% 30.16 in 1.8 mi Calm Calm - N/A   Partly Cloudy
6:08 AM 71.6 °F - 69.8 °F 94% 30.16 in 3.0 mi Calm Calm - N/A   Partly Cloudy
6:56 AM 73.0 °F - 71.1 °F 93% 30.13 in 10.0 mi Calm Calm - N/A   Scattered Clouds
7:03 AM 73.4 °F - 71.6 °F 94% 30.18 in 10.0 mi Calm Calm - N/A   Mostly Cloudy
7:56 AM 75.0 °F - 72.0 °F 90% 30.15 in 10.0 mi East 3.5 mph - N/A   Overcast
8:56 AM 78.1 °F - 73.9 °F 87% 30.16 in 10.0 mi Calm Calm - N/A   Overcast
9:34 AM 78.8 °F - 73.4 °F 83% 30.20 in 10.0 mi Calm Calm - N/A   Overcast
9:56 AM 82.0 °F 87.9 °F 73.9 °F 76% 30.16 in 10.0 mi Calm Calm - N/A   Mostly Cloudy
10:24 AM 84.2 °F 90.9 °F 73.4 °F 70% 30.20 in 10.0 mi North 3.5 mph - N/A   Scattered Clouds
10:56 AM 84.0 °F 90.2 °F 73.0 °F 69% 30.16 in 10.0 mi NNW 3.5 mph - N/A   Scattered Clouds
11:04 AM 82.4 °F 88.2 °F 73.4 °F 74% 30.20 in 10.0 mi NW 4.6 mph - N/A   Mostly Cloudy
11:11 AM 84.2 °F 90.9 °F 73.4 °F 70% 30.20 in 10.0 mi North 4.6 mph - N/A   Scattered Clouds
11:56 AM 84.9 °F 91.4 °F 73.0 °F 67% 30.15 in 10.0 mi Calm Calm - N/A   Clear
12:56 PM 88.0 °F 94.7 °F 72.0 °F 59% 30.13 in 10.0 mi Variable 3.5 mph - N/A   Clear
1:56 PM 87.1 °F 92.0 °F 70.0 °F 57% 30.11 in 10.0 mi Calm Calm - N/A   Clear
2:56 PM 88.0 °F 95.6 °F 73.0 °F 61% 30.09 in 10.0 mi SSW 4.6 mph - N/A   Clear
3:56 PM 88.0 °F 92.9 °F 70.0 °F 55% 30.07 in 10.0 mi Calm Calm - N/A   Clear
4:56 PM 87.1 °F 95.4 °F 73.9 °F 65% 30.06 in 10.0 mi SSW 8.1 mph - N/A   Clear
5:56 PM 84.0 °F 91.2 °F 73.9 °F 72% 30.05 in 10.0 mi South 8.1 mph - N/A   Clear
6:56 PM 82.0 °F 87.9 °F 73.9 °F 76% 30.05 in 10.0 mi South 5.8 mph - N/A   Clear
7:56 PM 80.1 °F 84.2 °F 73.0 °F 79% 30.06 in 10.0 mi Calm Calm - N/A   Clear
8:56 PM 78.1 °F - 73.0 °F 84% 30.07 in 10.0 mi Calm Calm - N/A   Clear
9:56 PM 78.1 °F - 73.0 °F 84% 30.09 in 10.0 mi WNW 3.5 mph - N/A   Clear
10:56 PM 77.0 °F - 72.0 °F 84% 30.08 in 10.0 mi Calm Calm - N/A   Clear
11:56 PM 75.9 °F - 72.0 °F 87% 30.07 in 10.0 mi NW 3.5 mph - N/A   Clear